Regional Weather Roundup
Issued by NWS

Home | Current Version | Previous Version | Text Only | Print | Product List | Glossary Off
Versions: 1 2 3 4 5 6 7 8 9 10 11 12 13 14 15 16 17 18 19 20 21 22 23 24 25 26 27 28 29 30 31 32 33 34 35 36 37 38 39 40 41 42 43 44 45 46 47 48 49 50

000
ASUS43 KLOT 260608
RWRIL

ILLINOIS REGIONAL WEATHER ROUNDUP
NATIONAL WEATHER SERVICE CHICAGO/ROMEOVILLE IL
100 AM CDT MON SEP 26 2016

NOTE: "FAIR" INDICATES FEW OR NO CLOUDS BELOW 12,000 FEET WITH NO
SIGNIFICANT WEATHER AND/OR OBSTRUCTIONS TO VISIBILITY.

* THESE STATIONS ARE NOT UNDER NWS QUALITY CONTROL. THEY ALSO MAY NOT
  REPORT WEATHER SUCH AS PRECIPITATION OR FOG.

ILZ001-002-007-009-015-016-024-260700-
NORTHWEST ILLINOIS

CITY           SKY/WX    TMP DP  RH WIND       PRES   REMARKS
MOLINE         CLOUDY    62  51  67 W13       30.06S
6HR MIN TEMP:  62; 6HR MAX TEMP:  69; 6HR PCP: TRACE;

STERLING*      CLOUDY    62  52  69 W16G23    30.02S
SAVANNA*       CLOUDY    62  51  69 W10       30.03R
$$

ILZ003-004-008-010-011-017-018-260700-
NORTH CENTRAL ILLINOIS

CITY           SKY/WX    TMP DP  RH WIND       PRES   REMARKS
ROCKFORD       CLOUDY    62  52  69 W13       30.01R
6HR MIN TEMP:  62; 6HR MAX TEMP:  78; 6HR PCP: TRACE;

FREEPORT*      CLOUDY    59  51  74 W14G20    30.02S
ROCHELLE*      CLOUDY    61  53  73 W12       30.01S
DE KALB*       CLOUDY    62  53  72 W13G22    29.99F
$$

ILZ005-006-012>014-019>023-260700-
NORTHEAST ILLINOIS

CITY           SKY/WX    TMP DP  RH WIND       PRES   REMARKS
CHICAGO-OHARE  LGT RAIN  64  54  69 W15G24    29.96R
6HR MIN TEMP:  64; 6HR MAX TEMP:  76; 6HR PCP: TRACE;

CHICAGO-MIDWAY CLOUDY    67  51  56 W14       29.96S
6HR MIN TEMP:  67; 6HR MAX TEMP:  82; 6HR PCP: TRACE;

AURORA         CLOUDY    63  55  75 W10       29.98F
6HR MIN TEMP:  62; 6HR MAX TEMP:  81; 6HR PCP: TRACE;

LANSING*       CLOUDY    67  55  66 W12G18    29.97R
JOLIET*        CLOUDY    67  54  63 W9        29.99S
WAUKEGAN       CLOUDY    63  54  72 W8        29.92R
6HR MIN TEMP:  63; 6HR MAX TEMP:  73; 6HR PCP: TRACE;

DUPAGE AIRPORT LGT RAIN  62  54  74 W9        29.96S
6HR MIN TEMP:  62; 6HR MAX TEMP:  77; 6HR PCP: TRACE;

KANKAKEE*      CLOUDY    66  54  65 W7        29.99S
WHEELING       LGT RAIN  63  54  72 W12       29.96S
6HR MIN TEMP:  63; 6HR MAX TEMP:  75; 6HR PCP:  0.01;

MORRIS*        LGT RAIN  64  53  65 CALM      29.99R
ROMEOVILLE*    CLOUDY    65  56  72 W16G22    29.99R
NORTHERLY ISL    N/A     67  51  56 W8          N/A
$$

LMZ740>746-260700-
SOUTHERN LAKE MICHIGAN

STATION/POSITION SKY/WX   TEMP    WIND        PRES    VSBY  WAVE
                          AIR SEA DIR/SP/G                  HT/PER
                          (F)     (DEG/KT/KT) (MB)    (MI)  (FT/S)
SOUTHERN BUOY              67 72  280/ 19/ 23 1012.1R         4/ 4
WILMETTE HARBOR            65 65  300/ 14/ 17   N/A           2/ 3
HARRISON CRIB              68     280/ 19/ 22   N/A
BURNHAM HARBOR             67     300/  7/ 16   N/A
CALUMET HARBOR             68     260/  6/ 14 1014.0R
BURNS HARBOR               69     290/ 17     1014.6R
MICHIGAN CITY              68     270/ 21/ 22   N/A
MICHIGAN CITY 6N           70 68  310/ 16/ 23   N/A           2/ 2
ST. JOSEPH                 68 64  300/ 17/ 23 1013.3R         4/ 4
$$

ILZ025>027-034>036-040-047-049-050-058-095>099-260700-
WEST-CENTRAL ILLINOIS

CITY           SKY/WX    TMP DP  RH WIND       PRES   REMARKS
QUINCY         CLOUDY    61  53  75 W6        30.12S
GALESBURG*     CLOUDY    61  51  69 W10G16    30.08S
MACOMB*        CLOUDY    62  51  66 NW9       30.12S
JACKSONVILLE*  RAIN      59  56  87 W7G16     30.11R
PITTSFIELD*    LGT RAIN  60  58  91 W3        30.13S
$$

ILZ028>032-037-038-041>044-048-051>054-059>061-260700-
CENTRAL ILLINOIS

CITY           SKY/WX    TMP DP  RH WIND       PRES   REMARKS
PONTIAC        CLOUDY    66  54  64 W16       30.03R
BLOOMINGTON    CLOUDY    65  53  65 NW15G24   30.05R
DECATUR        CLOUDY    68  53  58 NW15G23   30.05R
PEORIA         LGT RAIN  63  53  70 NW7       30.07R
6HR MIN TEMP:  63; 6HR MAX TEMP:  78; 6HR PCP: TRACE;

LACON*         DRIZZLE   62  50  64 W7G16     30.04R
SPRINGFIELD    CLOUDY    67  51  56 NW13G24   30.08R
6HR MIN TEMP:  67; 6HR MAX TEMP:  83;

TAYLORVILLE    CLOUDY    66  53  61 NW9       30.08R
6HR MIN TEMP:  66; 6HR MAX TEMP:  80;

$$

ILZ033-039-045-046-055>057-062-063-260700-
EAST-CENTRAL ILLINOIS

CITY           SKY/WX    TMP DP  RH WIND       PRES   REMARKS
CHAMPAIGN      CLOUDY    66  54  65 NW14      30.02S
RANTOUL*       CLOUDY    67  57  69 NW10G20   30.01S
MATTOON        LGT RAIN  68  56  65 NW16      30.02R
PARIS*         CLOUDY    68  64  85 NW3       30.01R
$$

ILZ079-100>102-260700-
SOUTHWEST ILLINOIS

CITY           SKY/WX    TMP DP  RH WIND       PRES   REMARKS
ALTON          LGT RAIN  64  56  74 NW10G18   30.10R
BELLEVILLE     LGT RAIN  64  62  93 NW12      30.08R
CAHOKIA*       CLOUDY    66  56  70 NW15G23   30.11R
SPARTA*        CLOUDY    70  67  90 NW20G29   30.06S
$$

ILZ064>066-069>071-074>076-080>082-084>086-088>090-092>094-260700-
SOUTH-CENTRAL ILLINOIS

CITY           SKY/WX    TMP DP  RH WIND       PRES   REMARKS
CARBONDALE     CLOUDY    73  71  93 N5        30.03S
6HR MIN TEMP:  69; 6HR MAX TEMP:  75;

CAIRO*         CLEAR     69  69  98 W5        29.99F
EFFINGHAM*     MOCLDY    71  63  78 W13G22    30.06R
MARION         CLOUDY    73  73 100 NW5       30.04R
MT. VERNON     PTCLDY    73  64  73 NW3       30.02S
CENTRALIA*     CLOUDY    71  70  97 NW14G22   30.03S
SALEM*         CLOUDY    71  68  91 NW14G20   30.03S
METROPOLIS*    CLEAR     70  70  98 CALM      29.99F FOG
$$

ILZ067-068-072-073-078-083-087-091-260700-
SOUTHEAST ILLINOIS

CITY           SKY/WX    TMP DP  RH WIND       PRES   REMARKS
LAWRENCEVILLE  MOCLDY    74  68  81 W6        29.98S
FLORA*         MOCLDY    74  69  84 W13G20    30.02R
FAIRFIELD*       N/A     73  68  86 NW3       29.99S
HARRISBURG*      N/A     74  70  86 NW8       29.99F THUNDER
ROBINSON*      MOCLDY    71  69  94 W3        29.99S
CARMI*         MOCLDY    70  70  99 W9        29.98S
$$

ABBREVIATIONS USED IN REMARKS
   TC - TEMPERATURE IN CELSIUS
  WCI - WIND CHILL INDEX
   HX - HEAT INDEX
  VSB - VISIBILITY
$$




USA.gov is the U.S. government's official web portal to all federal, state and local government web resources and services.